Home > Weather > Buffalo > Past weeks

Flag for U.S.A. Weather for the Past 2 Weeks in Buffalo, New York, U.S.A.

Now
31 °F

Passing clouds.


Feels Like: 24 °F
Forecast: 31 / 43 °F
Wind: 7 mph from Southwest

Location: Greater Buffalo International Airport

Current Time: Feb 7, 2016 at 1:52:52 AM

Latest Report: Feb 7, 2016 at 12:54 AM


Visibility: 10 mi

Pressure: 30.15 "Hg

Humidity: 76%

Dew point: 24 °F

Location of BuffaloLocation

Historic Weather in Buffalo — Graph

°F

Buffalo Temperature Yesterday

Maximum temperature yesterday: 35 °F (at 12:54 PM)
Minimum temperature yesterday: 28 °F (at 12:54 AM)
Average temperature yesterday: 32 °F

High & Low Weather Summary for the Past Weeks

 TemperatureHumidityPressure
High61 °F (Feb 3, 2:54 PM)93% (Feb 1, 1:54 AM)30.36 "Hg (Feb 1, 1:54 AM)
Low10 °F (Jan 23, 10:54 PM)33% (Jan 25, 10:54 PM)29.49 "Hg (Jan 31, 11:54 PM)
Average34 °F72%29.96 "Hg
* Reported Jan 23 12:54 AM — Feb 7 12:54 AM, Buffalo, Weather by CustomWeather, © 2016

Note: Actual official high and low records may vary slightly from our data, if they occured in-between our weather recording intervals... More about our weather records

Advertising

Buffalo Weather History for the Previous 24 Hours

 ConditionsComfort  
Time TempWeatherWind HumidityBarometerVisibility
12:54 AM
Sun, Feb 7
31 °FPassing clouds.7 mph76%30.15 "Hg10 mi
11:54 PM
Sat, Feb 6
32 °FPassing clouds.8 mph75%30.16 "Hg10 mi
10:54 PM31 °FPassing clouds.8 mph79%30.17 "Hg10 mi
9:54 PM33 °FOvercast.10 mph70%30.18 "Hg10 mi
8:54 PM33 °FOvercast.10 mph72%30.19 "Hg10 mi
7:54 PM32 °FPassing clouds.10 mph75%30.19 "Hg10 mi
6:54 PM32 °FPassing clouds.10 mph75%30.20 "Hg10 mi
5:54 PM32 °FPassing clouds.15 mph75%30.20 "Hg10 mi
4:54 PM33 °FPassing clouds.20 mph70%30.20 "Hg10 mi
3:54 PM34 °FPassing clouds.21 mph64%30.19 "Hg10 mi
2:54 PM34 °FPassing clouds.22 mph64%30.19 "Hg10 mi
1:54 PM34 °FScattered clouds.28 mph67%30.21 "Hg10 mi
12:54 PM35 °FBroken clouds.22 mph64%30.22 "Hg10 mi
11:54 AM33 °FMore clouds than sun.14 mph75%30.24 "Hg10 mi
10:54 AM33 °FLight snow. Broken clouds.14 mph75%30.26 "Hg9 mi
9:54 AM33 °FLight snow. Mostly cloudy.15 mph78%30.25 "Hg7 mi
8:54 AM33 °FLight snow. Cloudy.22 mph75%30.25 "Hg4 mi
7:54 AM33 °FBroken clouds.21 mph72%30.23 "Hg10 mi
6:54 AM33 °FMostly cloudy.15 mph56%30.22 "Hg10 mi
5:54 AM32 °FOvercast.14 mph59%30.23 "Hg10 mi
4:54 AM32 °FOvercast.13 mph59%30.23 "Hg10 mi
3:54 AM31 °FMostly cloudy.10 mph61%30.24 "Hg10 mi
2:54 AM30 °FOvercast.9 mph64%30.26 "Hg10 mi
1:54 AM29 °FOvercast.8 mph64%30.27 "Hg10 mi
Weather by CustomWeather, © 2016

See weather overviewHow to use our weather pages